Regional Weather Roundup
Issued by NWS Northern Indiana

Home | Current Version | Previous Version | Text Only | Print | Product List | Glossary On
Versions: 1 2 3 4 5 6 7 8 9 10 11 12 13 14 15 16 17 18 19 20 21 22 23 24 25 26 27 28 29 30 31 32 33 34 35 36 37 38 39 40 41 42 43 44 45 46 47 48 49 50
000
ASUS43 KIWX 280610
RWRIWX

KIWX WEATHER ROUNDUP
NATIONAL WEATHER SERVICE NORTHERN INDIANA
200 AM EDT FRI APR 28 2017

NOTE: "FAIR" INDICATES FEW OR NO CLOUDS BELOW 12,000 FEET WITH NO
SIGNIFICANT WEATHER AND/OR OBSTRUCTIONS TO VISIBILITY.

* THESE STATIONS ARE NOT UNDER NWS QUALITY CONTROL. THEY ALSO MAY NOT
  REPORT WEATHER SUCH AS PRECIPITATION OR FOG.

INZ001>027-280700-
NORTHERN INDIANA

CITY           SKY/WX    TMP DP  RH WIND       PRES   REMARKS
GARY*          CLEAR     42  39  91 CALM      29.89R FOG
VALPARAISO     CLEAR     45  40  82 S7        29.89R
6HR MIN TEMP:  45; 6HR MAX TEMP:  49;

MICHIGAN CITY* CLEAR     43  37  81 CALM      29.89S
LAPORTE*       CLEAR     43  39  85 CALM      29.89S
6HR MIN TEMP:  42; 6HR MAX TEMP:  47;

KNOX*          CLEAR     41  28  60 S6        29.90R
SOUTH BEND     CLEAR     43  38  82 SW7       29.89S
6HR MIN TEMP:  43; 6HR MAX TEMP:  47;

GOSHEN         CLEAR     45  37  73 W9        29.90R
6HR MIN TEMP:  45; 6HR MAX TEMP:  49;

MONTICELLO*    CLEAR     45  39  79 SW6       29.92R
6HR MIN TEMP:  45; 6HR MAX TEMP:  49;

LOGANSPORT*    PTCLDY    43  37  81 SW7       29.94R
ROCHESTER*     PTCLDY    48  41  76 SW3       29.92R
WARSAW*        MOCLDY    46  37  71 W6        29.92R
ANGOLA*        CLOUDY    48  39  71 W12       29.90R
FORT WAYNE     CLOUDY    48  40  73 W9        29.93R
6HR MIN TEMP:  48; 6HR MAX TEMP:  52;

HUNTINGTON*    CLOUDY    47  41  81 W7        29.93R
6HR MIN TEMP:  47; 6HR MAX TEMP:  50;

PERU/GRISSOM   CLOUDY    47  44  86 W6        29.92R
6HR MIN TEMP:  47; 6HR MAX TEMP:  51;

MARION*        CLOUDY    46  43  87 NW8       29.94R HAZE

$$
INZ028>050-280700-
CENTRAL INDIANA

CITY           SKY/WX    TMP DP  RH WIND       PRES   REMARKS
LAFAYETTE      CLOUDY    47  43  86 CALM      29.93R
6HR MIN TEMP:  47; 6HR MAX TEMP:  50;

KOKOMO*        CLOUDY    48  43  82 W6        29.94R
6HR MIN TEMP:  48; 6HR MAX TEMP:  51;

MUNCIE*        PTCLDY    47  42  83 W5        29.93R
6HR MIN TEMP:  47; 6HR MAX TEMP:  55;

INDIANAPOLIS   MOCLDY    47  42  83 W5        29.93R
6HR MIN TEMP:  46; 6HR MAX TEMP:  53;


$$
MIZ043>046-050>051-056>058-064>065-071>073-077>080-280700-
SOUTHWEST LOWER MICHIGAN

CITY           SKY/WX    TMP DP  RH WIND       PRES   REMARKS
BATTLE CREEK   PTCLDY    45  37  73 W10       29.87R
6HR MIN TEMP:  45; 6HR MAX TEMP:  49;

BENTON HARBOR  CLEAR     44  37  76 W12       29.89R
6HR MIN TEMP:  44; 6HR MAX TEMP:  47;

COLDWATER*     CLOUDY    48  37  66 W14G20    29.89R
HILLSDALE*     CLOUDY    46  36  66 W14G21    29.88R
HOLLAND        CLOUDY    44  35  70 SW15G26   29.87R
6HR MIN TEMP:  44; 6HR MAX TEMP:  45;

GRAND RAPIDS   CLOUDY    44  36  73 W18G29    29.85R
6HR MIN TEMP:  44; 6HR MAX TEMP:  46; 6HR PCP: TRACE;

KALAMAZOO      CLEAR     46  34  62 SW14      29.88R
6HR MIN TEMP:  46; 6HR MAX TEMP:  49;

STURGIS*       MOCLDY    46  37  71 W10G22    29.88R
6HR MIN TEMP:  46; 6HR MAX TEMP:  48;

THREE RIVERS*  FAIR      46  37  70 W5        29.89S

$$
OHZ001>008-015>018-024>025-280700-
NORTHWEST OHIO

CITY           SKY/WX    TMP DP  RH WIND       PRES   REMARKS
WAUSEON*       CLOUDY    50  39  66 W18G29    29.89R
DEFIANCE       MOCLDY    48  39  71 W8G16     29.91R
6HR MIN TEMP:  48; 6HR MAX TEMP:  51;

FINDLAY        CLEAR     47  41  80 W10       29.90R
6HR MIN TEMP:  47; 6HR MAX TEMP:  56;

TOLEDO EXPRESS CLOUDY    50  40  68 W16G24    29.89R
6HR MIN TEMP:  50; 6HR MAX TEMP:  54;

TOLEDO METCALF PTCLDY    51  41  68 W17G28    29.90R
6HR MIN TEMP:  50; 6HR MAX TEMP:  56;

LIMA           CLEAR     48  43  82 W10       29.91R
6HR MIN TEMP:  47; 6HR MAX TEMP:  55;


$$
AND FOR LAKE MICHIGAN COASTAL AND OPEN LAKE BUOY OBSERVATIONS

STATION/POSITION TEMP    WIND        PRES    VSBY  WAVE
                 AIR SEA DIR/SP/G                  HT/PER
                 (F)     (DEG/KT/KT) (MB)    (MI)  (FT/S)
CALUMET HARBOR    44     210/  3/  4 1011.5R
MICHIGAN CITY     46     180/ 10/ 11   N/A
BURNS HARBOR      46     190/  6/  8 1012.5R
SOUTH LAKE BUOY   43 41  260/ 16/ 17 1010.6          3/ 5
4 MI NW BRIDGMAN  45 48  280/  8/ 12 1012.7          3/ 4
MICHIGAN CITY     46 47                N/A           2/ 4

$$
&&




USA.gov is the U.S. government's official web portal to all federal, state and local government web resources and services.